Location: Ash Shall?l al Awwal
(24.0167°N, 32.8667°E)
Time: 11:22:44
(UTC+00:00)

CSL-04 Debris - Pass Details

Date: 02 March 2021
Orbit: 826 x 848 km, 98.9° (Epoch: 15 April)

Event Time Altitude Azimuth Distance (km) Brightness Sun altitude
Rises 16:50:59 0° 156° (SSE) 3,359 7.1 -14.3°
Reaches altitude 10° 16:53:22 10° 152° (SSE) 2,431 6.3 -14.8°
Maximum altitude 16:58:37 57° 75° (ENE) 979 4.2 -16.0°
Drops below altitude 10° 17:03:56 10° 358° (N) 2,454 6.6 -17.3°
Sets 17:06:20 0° 354° (N) 3,394 7.4 -17.8°
